Spokane Fairchild, WA
on Thursday, February 14, 2013

Thursday
Previous Day Next Day
Daily Summary
 ActualAverage (KGEG)Record (KGEG)
Temperature
Mean Temperature °F 33°F  
Max Temperature 39°F 39°F 55°F (1924)
Min Temperature 24°F 26°F -12°F (1884)
Degree Days
Heating Degree Days 34 32  
Month to date heating degree days 462  
Since 1 July heating degree days 4395  
Cooling Degree Days 0 0  
Month to date cooling degree days 0  
Year to date cooling degree days 0  
Moisture
Dew Point 27°F   
Average Humidity 83    
Maximum Humidity 100    
Minimum Humidity 65    
Precipitation
Precipitation 0.00 in 0.05 in 0.54 in (1939)
Month to date precipitation 0.66  
Year to date precipitation 2.45  
Snow
Snow 0.00 in 0.20 in 4.00 in (1923)
Month to date snowfall 3.7  
Since 1 July snowfall 37.2  
Snow Depth in   
Wind
Wind Speed 4 mph   
Max Wind Speed 8 mph   
Max Gust Speed mph   
Visibility 10 miles   
Events     

Key: T is trace of precipitation, MM is missing value
Source: NWS Daily Summary
Time(PST)TemperatureDew PointHumidity Pressure Visibility Wind DirectionWind SpeedGust SpeedPrecipitationEvents Conditions
12:19 AM 28.4°F 23.0°F 80% 30.31 in 10.0 miles WSW 3.5 mph - N/A   Clear
12:37 AM 28.4°F 23.0°F 80% 30.32 in 10.0 miles WSW 4.6 mph - N/A   Clear
12:58 AM 29.3°F 23.7°F 80% 30.39 in 10.0 miles West 5.8 mph - 0.00 in   Clear
1:33 AM 28.4°F 23.0°F 80% 30.33 in 10.0 miles WSW 4.6 mph - N/A   Clear
1:36 AM 26.6°F 23.0°F 86% 30.33 in 10.0 miles WSW 4.6 mph - N/A   Clear
1:58 AM 25.2°F 23.2°F 92% 30.34 in 10.0 miles SSW 2.3 mph - 0.00 in   Clear
2:02 AM 24.8°F 23.0°F 93% 30.33 in 10.0 miles South 2.3 mph - N/A   Clear
2:19 AM 24.8°F 23.0°F 93% 30.34 in 10.0 miles SW 2.3 mph - N/A   Clear
2:58 AM 26.4°F 24.1°F 91% 30.43 in 10.0 miles SSW 3.5 mph - 0.00 in   Clear
3:58 AM 25.9°F 24.3°F 94% 30.43 in 10.0 miles SSW 4.6 mph - N/A   Partly Cloudy
4:30 AM 26.6°F 24.8°F 93% 30.35 in 10.0 miles South 4.6 mph - N/A   Clear
4:46 AM 26.6°F 24.8°F 93% 30.36 in 10.0 miles South 2.3 mph - N/A   Scattered Clouds
4:58 AM 26.8°F 25.5°F 95% 30.44 in 10.0 miles South 2.3 mph - 0.00 in   Scattered Clouds
5:40 AM 26.6°F 26.6°F 100% 30.36 in 10.0 miles South 5.8 mph - N/A   Scattered Clouds
5:55 AM 26.6°F 26.6°F 100% 30.36 in 10.0 miles SSE 4.6 mph - N/A   Partly Cloudy
5:58 AM 26.6°F 26.6°F 100% 30.46 in 10.0 miles SSE 4.6 mph - 0.00 in   Partly Cloudy
6:58 AM 26.8°F 26.2°F 98% 30.47 in 10.0 miles SE 5.8 mph - N/A   Overcast
7:58 AM 27.1°F 26.4°F 97% 30.49 in 10.0 miles South 4.6 mph - N/A   Overcast
8:58 AM 29.5°F 27.9°F 94% 30.50 in 10.0 miles South 4.6 mph - N/A   Overcast
9:58 AM 33.8°F 29.3°F 84% 30.51 in 10.0 miles South 3.5 mph - N/A   Overcast
10:11 AM 35.6°F 30.2°F 81% 30.43 in 10.0 miles SSW 2.3 mph - N/A   Overcast
10:32 AM 35.6°F 30.2°F 81% 30.43 in 10.0 miles WSW 4.6 mph - N/A   Overcast
10:58 AM 36.7°F 29.8°F 76% 30.51 in 10.0 miles Variable 5.8 mph - 0.00 in   Scattered Clouds
11:22 AM 37.4°F 30.2°F 75% 30.43 in 10.0 miles South 4.6 mph - N/A   Mostly Cloudy
11:25 AM 37.4°F 30.2°F 75% 30.43 in 10.0 miles South 6.9 mph - N/A   Mostly Cloudy
11:29 AM 37.4°F 30.2°F 75% 30.43 in 10.0 miles South 4.6 mph - N/A   Mostly Cloudy
11:32 AM 37.4°F 30.2°F 75% 30.43 in 10.0 miles SW 4.6 mph - N/A   Overcast
11:43 AM 37.4°F 30.2°F 75% 30.43 in 10.0 miles WSW 6.9 mph - N/A   Overcast
11:53 AM 37.4°F 30.2°F 75% 30.42 in 10.0 miles WSW 6.9 mph - N/A   Overcast
11:58 AM 36.9°F 30.0°F 76% 30.50 in 10.0 miles SW 8.1 mph - 0.00 in   Overcast
12:58 PM 38.7°F 29.8°F 71% 30.49 in 10.0 miles SSW 4.6 mph - N/A   Mostly Cloudy
1:58 PM 39.0°F 29.8°F 70% 30.51 in 10.0 miles SW 8.1 mph - N/A   Overcast
2:58 PM 39.2°F 31.5°F 74% 30.51 in 10.0 miles SSW 4.6 mph - N/A   Overcast
3:43 PM 39.2°F 30.2°F 70% 30.44 in 10.0 miles SW 5.8 mph - N/A   Overcast
3:53 PM 39.2°F 28.4°F 65% 30.44 in 10.0 miles WSW 4.6 mph - N/A   Overcast
3:58 PM 39.7°F 29.1°F 66% 30.52 in 10.0 miles SW 4.6 mph - 0.00 in   Overcast
4:58 PM 36.5°F 29.1°F 75% 30.52 in 10.0 miles West 4.6 mph - N/A   Clear
5:05 PM 37.4°F 28.4°F 70% 30.44 in 10.0 miles West 3.5 mph - N/A   Clear
5:23 PM 35.6°F 28.4°F 75% 30.44 in 10.0 miles WNW 2.3 mph - N/A   Clear
5:58 PM 33.3°F 28.2°F 82% 30.52 in 10.0 miles SSW 1.2 mph - 0.00 in   Clear
6:58 PM 34.2°F 28.9°F 81% 30.52 in 10.0 miles SSE 1.2 mph - N/A   Clear
7:58 PM 32.9°F 27.9°F 82% 30.53 in 10.0 miles Calm Calm - N/A   Clear
8:58 PM 33.1°F 28.4°F 83% 30.54 in 10.0 miles Calm Calm - N/A   Clear
9:58 PM 30.4°F 27.3°F 88% 30.55 in 10.0 miles Calm Calm - N/A   Clear
10:58 PM 30.4°F 27.7°F 90% 30.56 in 10.0 miles North 2.3 mph - N/A   Clear
11:00 PM 28.4°F 26.6°F 93% 30.49 in 10.0 miles NNE 2.3 mph - N/A   Clear
11:21 PM 28.4°F 26.6°F 93% 30.49 in 10.0 miles NNE 1.2 mph - N/A   Clear
11:58 PM 30.6°F 27.7°F 89% 30.56 in 10.0 miles ENE 4.6 mph - 0.00 in   Clear
Moon Phase
Feb. 14 Feb. 17 Feb. 25 Mar. 04 Mar. 11
Sunrise:06:57 AM (PST) Moon Rise:08:37 AM (PST)2/14
Sunset:05:12 PM (PST) Moon Set:10:47 PM (PST)2/14

Copyright © 2014 The Weather Underground, Inc.